Temperature
18 18 18 18 18 18 18 18 18 18 18 18 18 18 18 18 18 18 18 18 18 18 17 17 17 17 17 17 17 17 17 17 17 17 17 17 16 16 16 16 16 16 16
18 18 17 17 17 17 18 18 18 18 18 18 18 18 18 18 18 18 18 18 17 17 17 17 17 17 17 17 17 17 17 17 17 17 17 16 16 16 16 16 16 16 16
18 17 17 17 17 17 17 18 18 18 18 18 18 18 18 17 18 18 18 18 17 17 17 17 17 17 17 17 17 17 17 17 17 17 17 16 16 16 16 16 16 16 16
17 17 17 17 17 17 17 17 17 17 17 17 17 17 17 18 18 18 18 17 17 17 17 17 17 17 17 17 17 17 17 17 17 17 17 16 16 16 16 16 16 16 16
17 17 17 17 17 17 17 17 17 17 17 17 17 17 17 17 18 17 17 17 17 17 17 17 17 17 17 17 17 17 17 17 17 17 17 17 16 16 16 16 16 16 16
17 17 17 17 17 17 17 17 17 17 17 17 17 17 17 17 17 17 17 17 17 17 17 17 17 17 17 17 17 17 17 17 17 17 17 16 16 16 16 16 16 16 16
17 17 17 17 17 17 17 17 17 17 17 17 17 17 17 17 17 17 17 17 17 17 17 17 17 17 17 17 17 17 17 17 17 17 16 16 16 16 16 16 16 16 16
17 17 17 17 17 17 17 17 17 17 17 17 17 17 17 17 17 17 17 17 17 17 17 17 17 17 17 17 17 17 17 16 17 16 16 16 16 16 16 16 16 16 16
17 17 17 17 17 17 17 17 17 17 17 17 17 17 17 17 16 17 17 17 17 17 17 17 17 17 17 17 17 16 16 16 16 16 16 16 16 16 16 16 16 16 16
17 17 17 17 17 17 17 17 17 17 17 17 17 17 17 17 16 16 16 17 17 17 17 17 17 17 17 17 17 16 16 16 16 16 16 16 16 16 16 16 16 16 16
17 17 17 17 17 17 17 17 17 17 17 17 17 17 17 16 16 16 16 16 17 17 16 16 16 16 16 16 16 16 16 16 16 16 16 16 16 16 16 16 15 16 16
17 17 17 17 17 17 17 17 17 17 17 16 16 16 16 16 16 16 16 16 16 16 16 16 16 16 16 16 16 16 16 16 16 16 16 15 15 15 15 15 15 15 15
17 17 17 17 17 17 17 16 16 16 16 16 16 16 16 16 16 16 16 16 16 16 16 16 16 16 16 16 16 16 16 16 16 16 16 15 15 15 15 15 15 15 15
17 17 17 17 16 16 16 16 16 16 16 16 16 16 16 16 16 16 16 16 15 15 16 16 16 16 16 16 16 16 16 16 16 15 15 15 15 15 15 15 15 15 15
17 17 17 16 16 16 16 16 16 16 16 16 16 16 16 16 16 16 16 16 15 15 15 15 16 16 15 15 15 16 16 16 15 15 15 15 15 15 15 15 15 15 15
16 16 16 16 16 16 16 16 16 16 16 16 16 16 15 15 15 16 16 15 15 15 15 15 15 15 15 15 15 15 15 15 15 15 15 15 15 15 15 15 15 15 15
16 16 16 16 16 16 16 16 16 16 16 15 15 15 15 15 15 15 15 15 15 15 15 15 15 15 15 15 15 15 15 15 15 15 15 15 15 15 14 14 14 14 15
16 16 16 16 16 16 16 16 16 15 15 15 15 15 15 15 15 15 15 15 15 15 14 14 14 14 14 14 14 14 14 14 14 14 15 15 15 14 14 14 14 14 14
16 16 16 16 16 16 16 16 15 15 15 15 15 15 15 15 15 15 15 15 14 14 14 14 14 14 14 14 14 14 14 14 14 14 14 14 14 14 14 14 14 14 14
16 16 16 16 16 15 15 15 15 15 15 15 15 15 15 15 15 14 14 14 14 14 14 14 14 14 14 14 13 14 14 14 14 14 14 14 14 14 14 14 14 14 14
16 16 16 15 15 15 15 15 15 15 15 15 15 15 14 14 14 14 14 14 14 14 14 13 13 13 13 13 13 13 13 13 13 13 13 14 14 14 14 14 14 14 14
16 16 15 15 15 15 15 15 15 15 15 15 14 14 14 14 14 14 14 14 13 13 13 13 13 13 13 13 13 13 13 13 13 13 13 13 13 13 13 13 13 13 13
16 15 15 15 15 15 15 15 14 14 14 14 14 14 14 14 14 14 14 14 13 13 13 13 13 13 13 13 13 13 13 13 13 13 13 13 13 13 13 13 13 13 13
15 15 15 15 15 15 15 14 14 14 14 14 14 14 14 14 14 13 13 13 13 13 13 13 13 13 13 13 13 13 13 13 13 13 13 13 13 13 13 13 13 13 13
15 15 15 15 15 15 14 14 14 14 14 14 14 14 14 14 13 13 13 13 13 13 13 13 13 13 13 13 12 12 12 12 12 13 13 12 13 13 13 13 13 13 13
15 15 15 14 14 14 14 14 14 14 14 14 13 13 13 13 13 13 13 13 13 13 13 13 13 12 13 13 12 12 12 12 12 12 13 12 13 12 12 13 13 13 13
Wind_Speed
1 1 2 2 2 2 2 2 2 2 2 1 1 1 1 1 2 2 2 3 5 5 6 6 6 7 7 7 8 7 8 8 9 9 9 9 9 9 10 9 8 8 8
1 0 1 1 1 1 1 1 1 1 1 1 1 0 0 1 1 2 1 2 3 4 4 4 5 6 6 6 7 7 7 8 8 8 8 9 9 10 9 9 9 8 8
2 1 1 1 1 1 1 2 2 2 1 1 1 0 0 0 1 1 1 1 1 3 3 4 4 5 6 6 7 8 8 8 8 8 9 9 9 10 9 9 9 9 9
2 2 1 0 1 1 1 1 1 2 1 1 1 0 1 0 0 1 1 1 1 2 2 2 3 4 5 6 6 7 7 8 8 9 9 10 10 10 10 10 10 10 9
3 3 1 0 1 1 1 1 2 1 1 1 1 1 1 1 1 0 1 1 0 1 1 1 2 2 3 4 5 6 7 7 7 8 9 9 10 11 10 11 11 10 10
3 3 2 1 1 1 1 1 2 2 1 1 2 2 2 2 2 1 0 0 0 0 1 1 1 1 2 4 5 5 5 6 7 8 9 9 10 10 10 11 11 11 10
3 3 2 1 2 1 1 1 1 2 2 2 2 2 2 2 2 1 1 1 0 0 0 0 1 1 1 3 4 5 5 5 6 7 8 9 10 10 10 10 11 11 11
3 3 2 2 2 2 1 1 1 1 1 2 2 1 2 3 3 2 1 1 1 1 1 0 1 1 1 2 3 4 5 5 6 7 7 8 9 9 9 10 11 11 11
2 2 3 2 2 2 1 1 1 2 1 1 1 2 2 1 1 2 2 1 1 0 0 0 0 1 1 1 2 3 4 4 4 5 7 8 8 8 8 9 10 11 11
1 2 2 2 2 2 2 1 1 1 2 1 0 0 1 2 1 1 2 2 1 0 1 0 0 1 2 2 3 4 5 5 6 6 6 7 7 8 8 8 9 9 9
0 1 2 2 2 1 2 1 1 1 2 2 1 1 1 1 1 1 2 2 2 1 1 1 1 1 2 2 3 4 6 6 6 6 6 6 6 6 7 8 8 8 9
0 0 1 2 2 2 2 2 2 2 2 2 1 1 2 1 2 2 2 2 2 2 1 1 1 2 2 3 4 4 5 6 6 6 6 7 6 6 5 6 7 7 7
1 2 1 1 2 2 2 2 2 2 2 2 2 2 2 2 2 2 2 1 1 2 1 1 2 2 2 3 3 4 5 6 7 7 7 7 7 6 6 5 5 5 5
3 2 2 2 2 2 3 2 2 2 2 2 3 2 2 2 2 2 3 2 1 2 2 3 1 2 2 2 4 4 4 6 7 7 8 8 8 7 7 6 6 6 6
3 2 2 2 2 3 3 2 2 2 2 2 2 2 2 2 2 2 3 3 3 3 3 3 2 2 2 2 3 3 4 5 6 7 8 8 8 7 7 7 7 7 6
3 2 2 3 3 3 3 3 3 2 2 2 2 1 1 2 2 2 3 3 3 3 3 3 3 3 3 2 2 2 3 4 5 6 7 7 7 7 6 7 7 6 7
4 3 3 3 3 3 3 3 3 3 3 2 2 2 3 2 2 2 2 2 2 3 4 3 2 3 2 2 2 2 2 2 3 6 7 8 8 8 7 6 6 6 7
4 4 3 3 3 4 3 3 4 3 3 3 3 3 4 3 3 2 2 3 3 3 3 4 3 2 2 2 2 2 2 2 3 4 6 7 7 8 8 8 7 7 8
3 3 3 3 3 3 3 3 4 4 4 4 4 4 4 3 3 2 3 3 3 3 3 3 3 2 2 1 1 1 2 2 2 3 4 6 7 8 9 9 9 10 10
3 3 3 3 3 3 2 2 3 3 3 4 4 4 4 4 4 4 3 3 2 2 2 2 2 2 2 1 1 1 2 2 2 2 2 3 5 7 9 10 10 10 10
4 3 2 3 3 3 3 3 3 3 3 3 3 3 4 4 5 4 3 3 3 2 2 2 2 2 2 2 2 2 3 2 3 2 2 2 2 3 4 7 9 9 10
3 2 3 3 3 3 3 4 3 3 3 3 4 4 4 3 4 4 4 4 4 4 3 3 3 4 4 4 3 3 2 2 3 2 2 3 2 3 3 4 6 9 10
3 3 3 3 4 4 4 4 4 3 3 4 4 4 3 3 3 2 3 3 3 4 5 5 5 5 5 4 3 3 4 4 4 2 2 3 2 4 4 5 7 8 9
3 3 3 4 4 4 4 4 3 3 3 4 4 4 4 3 3 2 2 2 3 4 5 4 5 6 6 5 6 5 4 4 3 3 3 3 3 4 4 4 6 7 7
3 3 2 3 3 4 4 3 2 2 3 4 4 4 4 4 4 3 2 3 3 4 4 5 5 6 6 7 6 3 3 3 4 3 4 3 3 3 3 4 5 6 7
3 2 2 2 3 4 4 4 2 2 3 3 3 3 4 4 4 3 3 3 4 5 3 3 3 3 4 5 7 7 6 5 4 3 4 4 3 2 2 2 3 4 5
Wind_Direction
70 15 13 16 15 27 36 25 34 62 61 67 84 120 153 185 193 202 224 228 220 223 229 227 228 225 213 205 203 200 197 200 202 204 204 195 192 190 189 190 195 198 195
175 123 32 14 2 8 15 33 39 86 76 94 83 72 156 210 200 192 203 231 223 224 231 227 223 220 211 202 197 193 195 197 198 197 196 194 194 192 194 197 200 197 193
181 163 110 21 342 12 47 60 61 76 96 100 81 32 109 218 224 199 193 209 231 233 234 229 220 213 207 202 200 198 199 199 198 198 198 199 195 194 197 201 202 201 199
169 150 124 24 355 43 71 83 76 72 64 70 59 2 29 40 287 217 206 217 227 234 225 220 212 205 208 210 209 203 202 204 204 203 202 202 201 199 199 203 205 206 204
158 145 140 136 75 69 59 83 67 83 69 50 73 51 32 26 360 184 175 209 206 202 192 191 184 186 199 210 212 212 210 210 209 208 207 203 201 201 203 205 208 207 205
159 147 150 141 111 87 64 64 76 68 75 74 73 47 26 21 28 31 83 67 30 250 183 172 168 195 221 227 226 221 217 217 214 213 211 208 205 205 206 207 206 206 206
163 152 141 120 108 108 100 78 84 74 50 60 68 34 18 30 39 25 63 67 29 305 87 139 163 182 231 244 240 228 222 218 212 214 216 213 212 210 210 207 204 206 208
174 167 156 151 139 121 89 70 89 92 62 67 97 80 15 0 14 23 32 51 360 15 46 84 123 173 220 232 238 227 223 223 216 213 214 211 211 210 211 207 206 208 210
162 161 162 158 153 145 155 176 142 142 147 72 88 129 136 232 330 355 13 26 29 54 1 106 102 276 258 242 246 233 226 226 218 214 211 209 206 207 207 205 208 210 212
175 174 163 158 158 157 170 203 166 161 154 164 135 85 138 154 161 323 340 358 4 345 304 301 281 260 252 247 242 229 222 221 222 221 216 212 208 209 208 210 214 216 215
51 169 163 154 163 176 191 188 158 151 158 164 173 159 114 79 135 179 279 319 341 319 281 263 257 256 257 253 243 230 220 211 211 214 210 208 208 213 216 219 219 221 220
356 95 157 158 169 188 205 204 190 174 174 164 177 169 166 166 187 177 225 275 292 296 284 264 259 261 261 257 248 231 214 207 201 201 199 198 198 203 208 217 219 221 216
235 241 205 191 198 211 213 201 190 194 187 186 208 215 209 211 186 175 185 233 274 302 296 274 254 261 264 257 253 240 223 213 207 204 204 200 198 202 202 205 206 207 208
228 233 213 210 215 208 217 203 202 214 196 210 225 216 218 224 201 193 185 183 254 291 283 270 276 258 266 259 255 247 237 223 213 210 208 207 203 205 205 209 212 214 214
230 225 224 224 222 212 211 196 211 222 200 212 227 229 232 234 209 206 198 193 195 250 271 257 257 263 259 257 260 250 239 230 215 211 209 209 207 204 205 208 212 215 215
240 228 239 239 236 228 219 207 220 223 210 230 228 223 238 242 225 208 205 206 206 213 250 247 248 273 271 272 272 248 244 233 219 209 211 210 206 205 208 212 214 216 216
222 223 233 239 245 240 229 215 225 223 221 237 239 224 242 244 236 224 206 205 212 209 241 266 262 280 269 272 296 280 266 247 237 220 214 209 203 200 200 201 211 218 220
223 224 230 234 247 248 233 221 228 225 218 231 237 233 243 241 238 232 211 215 220 219 224 255 271 271 261 269 277 285 280 265 250 233 217 209 205 203 203 209 213 220 222
223 221 217 232 248 250 235 225 218 216 217 223 225 228 237 230 244 241 225 223 226 232 227 234 266 271 266 266 282 288 284 294 277 260 225 217 213 214 216 219 220 222 223
218 225 226 241 247 246 237 228 221 222 227 235 235 234 237 228 232 234 234 228 222 228 225 228 256 269 267 266 230 258 280 282 283 284 256 226 219 223 226 226 227 228 225
220 222 229 249 256 248 243 231 222 228 230 247 254 249 245 235 229 228 237 224 211 217 215 223 248 264 267 250 240 232 248 276 276 267 251 242 232 233 238 236 234 234 230
222 216 233 245 256 261 257 234 214 227 229 238 251 256 252 247 244 242 246 236 211 207 213 219 239 247 259 250 244 237 234 249 265 248 227 254 235 243 249 247 241 235 232
221 230 236 235 250 257 255 245 220 215 232 238 239 243 250 254 248 239 250 252 242 229 213 212 227 241 239 231 221 235 232 233 245 237 214 257 251 250 253 256 247 238 234
222 226 229 234 249 264 265 250 233 222 239 248 244 229 231 251 243 223 227 249 260 255 242 231 232 240 238 228 218 224 232 242 257 242 210 240 253 252 256 252 248 241 239
226 222 222 227 241 269 277 259 224 220 241 256 254 235 224 230 230 215 223 251 270 276 263 249 250 249 243 233 213 204 215 223 249 247 209 216 243 251 256 253 249 237 233
221 224 237 237 239 258 269 258 221 214 241 259 261 247 228 226 227 217 219 228 249 265 275 287 282 275 257 236 214 210 214 222 232 241 213 201 222 222 254 249 245 239 233
Height
1532 1533 1534 1534 1535 1535 1536 1537 1537 1538 1538 1539 1540 1540 1540 1541 1541 1541 1542 1542 1543 1543 1544 1544 1545 1546 1546 1547 1548 1550 1551 1552 1553 1555 1556 1557 1559 1560 1562 1563 1565 1566 1567
1533 1534 1534 1535 1535 1536 1537 1537 1537 1538 1538 1539 1539 1540 1540 1540 1540 1540 1541 1541 1542 1543 1543 1544 1544 1545 1546 1546 1547 1548 1550 1551 1552 1553 1554 1556 1557 1559 1560 1562 1563 1564 1566
1534 1534 1535 1536 1536 1536 1537 1537 1537 1537 1538 1538 1539 1539 1539 1539 1539 1540 1540 1541 1541 1542 1542 1543 1543 1544 1545 1545 1546 1547 1548 1550 1551 1552 1553 1554 1556 1557 1559 1560 1561 1563 1564
1534 1535 1535 1536 1536 1537 1537 1537 1537 1537 1538 1538 1538 1538 1538 1538 1538 1539 1539 1540 1540 1541 1541 1542 1543 1543 1544 1544 1545 1546 1547 1548 1549 1550 1551 1553 1554 1556 1557 1558 1560 1561 1563
1534 1535 1535 1536 1536 1537 1537 1537 1537 1537 1537 1537 1537 1537 1537 1538 1538 1538 1538 1539 1540 1540 1540 1541 1542 1542 1543 1544 1544 1545 1546 1547 1548 1549 1550 1551 1552 1554 1555 1556 1558 1559 1560
1534 1535 1535 1536 1536 1536 1537 1537 1537 1537 1537 1537 1537 1537 1537 1537 1537 1537 1538 1539 1539 1540 1540 1541 1541 1541 1542 1543 1543 1544 1545 1546 1546 1547 1548 1549 1551 1552 1553 1554 1555 1556 1558
1534 1534 1535 1535 1536 1536 1536 1537 1537 1537 1537 1537 1537 1536 1537 1537 1537 1537 1537 1538 1539 1539 1540 1540 1540 1540 1541 1541 1542 1543 1544 1544 1545 1546 1547 1548 1549 1550 1551 1552 1553 1554 1556
1533 1534 1534 1535 1535 1536 1536 1536 1536 1536 1536 1537 1537 1536 1536 1538 1536 1537 1537 1537 1538 1538 1539 1539 1539 1539 1540 1540 1540 1541 1542 1543 1543 1544 1545 1546 1546 1548 1549 1550 1551 1552 1553
1533 1533 1534 1534 1535 1535 1535 1535 1536 1536 1536 1536 1536 1537 1537 1536 1536 1537 1537 1537 1537 1537 1538 1538 1538 1538 1538 1538 1539 1539 1539 1540 1541 1542 1543 1544 1544 1545 1546 1547 1548 1549 1551
1532 1533 1534 1534 1534 1534 1534 1535 1535 1535 1535 1535 1536 1536 1537 1536 1536 1536 1536 1536 1536 1537 1537 1537 1537 1537 1537 1537 1537 1537 1537 1538 1539 1540 1540 1541 1542 1543 1544 1545 1546 1547 1548
1532 1532 1533 1533 1533 1534 1534 1534 1534 1534 1534 1535 1535 1535 1535 1536 1536 1535 1535 1535 1535 1535 1535 1535 1535 1535 1535 1535 1534 1535 1535 1536 1536 1537 1538 1539 1539 1540 1541 1542 1543 1544 1545
1530 1531 1532 1532 1532 1532 1533 1533 1533 1533 1533 1533 1534 1534 1534 1534 1534 1534 1534 1533 1533 1533 1533 1534 1533 1533 1533 1533 1533 1532 1532 1533 1533 1534 1535 1536 1537 1538 1539 1539 1540 1541 1542
1529 1530 1530 1530 1530 1531 1531 1531 1531 1531 1532 1532 1532 1532 1532 1533 1533 1533 1533 1532 1531 1531 1531 1531 1531 1531 1531 1531 1530 1530 1530 1530 1531 1532 1532 1533 1534 1535 1536 1537 1538 1539 1540
1528 1528 1528 1528 1528 1529 1529 1529 1529 1529 1530 1530 1530 1530 1530 1530 1531 1531 1531 1530 1529 1529 1528 1528 1529 1529 1529 1528 1528 1528 1527 1528 1528 1529 1530 1530 1531 1532 1533 1534 1535 1536 1537
1526 1526 1526 1526 1526 1526 1527 1527 1527 1527 1527 1527 1527 1527 1527 1528 1528 1528 1528 1528 1528 1527 1525 1525 1526 1526 1526 1525 1525 1525 1525 1525 1525 1526 1527 1527 1528 1529 1531 1532 1533 1534 1535
1523 1524 1524 1524 1524 1524 1524 1524 1524 1524 1524 1525 1524 1525 1524 1525 1525 1525 1525 1525 1525 1525 1523 1522 1522 1523 1522 1522 1522 1522 1522 1522 1523 1523 1524 1524 1525 1526 1527 1528 1530 1530 1532
1520 1520 1521 1521 1521 1521 1521 1521 1521 1521 1521 1521 1522 1522 1522 1522 1522 1522 1522 1522 1522 1522 1520 1519 1519 1519 1519 1519 1519 1519 1519 1520 1520 1520 1521 1522 1522 1523 1524 1525 1526 1527 1528
1518 1517 1518 1518 1518 1518 1517 1518 1518 1518 1518 1519 1519 1519 1519 1519 1519 1519 1519 1519 1519 1518 1518 1516 1515 1515 1515 1516 1516 1516 1517 1517 1517 1517 1518 1518 1519 1520 1521 1522 1523 1524 1525
1514 1514 1515 1514 1514 1515 1515 1514 1515 1515 1515 1515 1515 1515 1515 1516 1516 1516 1516 1515 1515 1515 1514 1513 1512 1512 1512 1513 1513 1514 1514 1514 1514 1514 1514 1515 1516 1517 1518 1519 1520 1520 1522
1511 1511 1511 1511 1512 1512 1512 1512 1512 1512 1512 1512 1512 1512 1512 1512 1512 1512 1512 1512 1511 1511 1511 1510 1510 1509 1510 1510 1510 1510 1511 1511 1511 1511 1511 1512 1512 1513 1514 1515 1516 1517 1518
1508 1508 1508 1508 1509 1509 1509 1509 1509 1509 1508 1508 1508 1508 1509 1509 1509 1509 1509 1508 1508 1508 1507 1507 1506 1506 1506 1506 1507 1507 1507 1508 1508 1508 1508 1508 1509 1510 1511 1512 1512 1513 1514
1505 1505 1505 1505 1506 1505 1505 1505 1506 1505 1505 1505 1505 1505 1505 1505 1505 1505 1505 1505 1505 1504 1503 1503 1503 1503 1503 1503 1504 1504 1504 1504 1504 1505 1505 1505 1506 1506 1507 1508 1508 1509 1510
1502 1502 1502 1502 1502 1502 1502 1502 1502 1502 1502 1501 1501 1501 1502 1502 1502 1502 1501 1501 1501 1501 1501 1500 1500 1499 1500 1500 1500 1500 1501 1501 1501 1502 1502 1501 1502 1502 1503 1504 1504 1505 1506
1499 1499 1499 1499 1499 1499 1499 1499 1499 1498 1498 1498 1498 1498 1498 1498 1498 1498 1498 1498 1497 1497 1497 1497 1497 1497 1497 1497 1497 1498 1497 1498 1498 1499 1499 1498 1498 1499 1499 1500 1500 1501 1502
1496 1496 1496 1496 1496 1496 1496 1496 1495 1495 1495 1494 1494 1494 1494 1494 1494 1494 1495 1494 1494 1494 1494 1494 1493 1493 1493 1494 1494 1494 1494 1494 1493 1494 1495 1495 1495 1495 1495 1496 1497 1497 1498
1493 1494 1493 1493 1493 1493 1493 1493 1492 1492 1491 1491 1491 1490 1491 1491 1491 1491 1491 1491 1490 1490 1490 1490 1490 1490 1490 1490 1490 1490 1490 1490 1490 1490 1491 1492 1491 1492 1492 1492 1493 1493 1494